www.pogodaiklimat.ru

ПОГОДА в Бриджпорте, CA

  • Прогноз погоды в Бриджпорте
  • Монитор погоды в Бриджпорте
  • Климат в Бриджпорте

АРХИВ ПОГОДЫ в Бриджпорте

Время (UTC), дата Ветер
(напр.,м/с)
 
Видим.   Явления Облачность Т
(С)
Тd
(С)
f
(%)
Тe
(С)
Тes
(С)
Комфортность

P
(гПа)

Po
(гПа)
Тmin
(С)
Tmax
(С)
R
(мм)
SD
(см)
07:52 23.03   4 км  слабый снег  10/10 840 м  +3.3  -1.1  73  +3  +3    1012.0  793.1      0.3   
08:02 23.03   4 км  слабый снег  10/10 600 м  +2.8  -1.1  75  +2  +2      793.1         
08:09 23.03   6 км  слабый снег  10/10 780 м  +3.3  -1.1  73  +3  +3      793.1         
08:52 23.03   4 км  слабый снег  10/10 720 м  +3.3  -1.1  73  +3  +3    1011.4  792.5         
09:03 23.03   3 км  слабый снег  10/10 660 м  +2.8  -1.1  75  +2  +2      792.5         
09:15 23.03   3 км  слабый снег  10/10 210 м  +2.8  -1.1  75  +2  +2      792.5         
09:36 23.03   5 км  слабый снег  10/10 120 м  +2.8  -1.1  75  +2  +2      792.3         
09:43 23.03   4 км  слабый снег  10/10 120 м  +2.8  -1.1  75  +2  +2      792.3         
09:52 23.03   5 км  слабый снег  10/10 120 м  +2.8  -1.1  75  +2  +2    1012.9  792.0         
10:02 23.03   4 км  слабый снег  10/10 660 м  +2.8  -1.1  75  +2  +2      792.0         
10:20 23.03   3 км  слабый снег  10/10 60 м  +2.8  -1.1  75  +2  +2      791.7         
10:52 23.03   3 км  слабый снег  10/10 120 м  +3.3  -1.1  73  +3  +3    1012.4  791.7  +2.2  +6.1  1.0   
10:59 23.03   2 км  слабый снег  10/10 120 м  +3.3  -1.1  73  +3  +3      791.7         
11:22 23.03 СЗ  4 км  слабый снег  10/10 180 м  +3.3  -1.1  73  +1  +1      791.5         
11:26 23.03   5 км  слабый снег  10/10 180 м  +3.9  -1.1  70  +3  +3      791.7         
11:52 23.03   6 км  слабый снег  10/10 600 м  +2.8  -1.7  72  +2  +2    1012.4  791.5         
12:52 23.03 нст  16 км    10/8 1950 м
[средняя] 
+2.8  -2.8  67  +1  +1    1013.6  791.2         
13:52 23.03 СВ  14 км    10/10 1500 м  +3.9  -2.2  64  +2  +2    1012.7  791.2      0.3   
14:52 23.03   16 км    10/8 1800 м
[средняя] 
+5.0  -1.7  62  +4  +5    1013.2  791.2         
15:52 23.03 Ю  4
{8} 
16 км    10/0 2100 м
[средняя] 
+10.6  -2.2  41  +8  +9    1012.2  791.2         
16:52 23.03 Ю  4
{8} 
16 км    10/10 1230 м  +16.1  -2.8  27  +15  +15    1009.0  791.5  +1.1  +17.8  0.3   
17:52 23.03 Ю  5
{10} 
16 км    10/10 1410 м  +17.2  -4.4  22  +16  +16    1009.2  791.5         
18:52 23.03 Ю  5
{9} 
16 км    10/10 1230 м  +16.1  -3.3  26  +15  +15    1010.3  791.7         
19:52 23.03 ЮЗ  8
{12} 
16 км    8/8 1170 м  +14.4  -6.1  24  +12  +13    1012.5  791.7         
20:52 23.03 ЮЗ  5
{11} 
16 км    10/10 1110 м  +12.8  -5.6  27  +11  +11    1012.7  791.7         
21:52 23.03 ЮЗ  7
{11} 
16 км    10/10 1200 м  +12.8  -6.7  25  +10  +10    1013.2  792.0         
22:52 23.03 З  8
{13} 
16 км    8/8 1080 м  +12.8  -7.2  24  +10  +10    1013.3  792.3  +10.6  +18.9     
23:52 23.03 ЮЗ  3
{9} 
16 км    5/5 1320 м  +9.4  -8.3  28  +8  +9    1014.3  792.3         
00:16 24.03 З  4 км  мгла  10/10 930 м  +6.7  -5.6  41  +5  +5      792.5         
00:26 24.03 нст  8 км  мгла  10/10 990 м  +4.4  -5.6  48  +1  +1      792.5         
00:52 24.03 З  16 км    10/10 1110 м  +10.0  -5.6  33  +8  +8    1015.0  792.8         
01:52 24.03 ЮЗ  16 км    10/10 1080 м  +11.1  -6.7  28  +10  +10    1014.8  793.1         
02:52 24.03 нст  16 км    10/10 1230 м  +7.8  -7.2  34  +6  +6    1016.0  793.6         
03:52 24.03 З  16 км    ясно  +6.7  -8.9  32  +3  +3    1015.1  793.9         
04:52 24.03   16 км    ясно  +0.6  -10.0  45  0  0    1015.9  794.1  +0.6  +12.2     
05:52 24.03 нст  16 км    ясно  0.0  -11.1  43  -3  -3    1015.9  794.4         
06:52 24.03 нст  16 км    ясно  +1.7  -13.3  32  -2  -2    1015.8  794.4         
07:52 24.03   16 км    ясно  -1.1  -14.4  36  -1  -1    1017.7  794.9         
08:52 24.03   16 км    ясно  -3.3  -13.9  44  -4  -4    1018.5  794.9         
09:52 24.03   16 км    ясно  -3.9  -15.6  40  -4  -4    1018.9  794.9         
10:52 24.03   16 км    ясно  -6.1  -15.6  47  -6  -6    1019.4  794.9  -6.1  +2.8     
11:52 24.03   16 км    ясно  -6.7  -16.7  45  -7  -7    1020.8  795.4         
13:52 24.03   16 км    ясно  -6.1  -15.6  47  -6  -6    1021.1  796.0         
14:52 24.03   16 км    ясно  -1.7  -14.4  37  -2  -0    1020.8  796.0         
15:52 24.03   16 км    ясно  +5.0  -14.4  23  +5  +10    1019.6  796.2         
16:52 24.03   16 км    ясно  +10.0  -15.6  15  +10  +20  опасность
простуды 
1019.7  796.0  -8.3  +10.6     
17:52 24.03   16 км    ясно  +11.1  -15.0  14  +11  +26  опасность
простуды 
1019.7  796.0         
18:52 24.03   16 км    ясно  +17.8  -17.2  +18  +36  опасность
простуды 
1015.6  795.7         

 

Местоположение метеостанции MCMWTC: широта 38.3557 долгота -119.5188 высота над уровнем моря 2057 м.

В архиве по умолчанию представлена погода в Бриджпорте за последние 1-2 суток. Обновление информации о фактической погоде в базе происходит ежечасно! Архивные данные за месяц целиком и за предыдущие месяцы Вы можете получить, выбрав интересующий диапазон дат из раскрывающегося списка и нажав кнопку "Ввод!".

Внимание! Архив погоды МЕТАР в базе сайта хранится не более 60 дней. Нет смысла пытаться выбрать более раннюю дату.

Внимание! Время в таблицах - всемирное. Для получения местного времени необходимо прибавить поправку, которая в Бриджпорте равна -8 ч.

Ветер - указаны скорость ветра в м/с и направление, откуда дует ветер: С - северный, СВ - северо-восточный, В - восточный, ЮВ - юго-восточный, Ю - южный, ЮЗ - юго-западный, З - западный, СЗ - северо-западный.
Видимость - горизонтальная дальность видимости в метрах или километрах. При видимости от 1 до 10 км при отсутствии осадков обычно наблюдается дымка, при ухудшении видимости до 1 км и менее - туман. В сухую погоду видимость может ухудшаться дымом, пылью или мглою.
Атмосферные явления - указаны явления, наблюдавшиеся в указанный момент времени.
Облачность - указаны через наклонную черту верхняя и нижняя облачность в баллах и высота нижней границы облаков в метрах. Внимание: облачность, как и прочие метеорологические величины в США измеряются автоматическими метеостанциями. Указанные значения в баллах носят условный характер и показывают процент времени, в течение которого, в среднем, лазерный луч высотомера отражался от облаков обратно.
T - Температура воздуха - температура, измеренная на высоте 2 м над землей.
Td - Температура точки росы - температура, при понижении до которой содержащийся в воздухе водяной пар достигнет насыщения.
f - Относительная влажность воздуха - влажноcть воздуха, измеренная на высоте 2 м над землей.
Te - Эффективная температура - температура, которую ощущает одетый по сезону человек в тени. Характеристика душности погоды. При расчете учитывается влияние влажности воздуха и скорости ветра на теплоощущения человека.
Tes - Эффективная температура на солнце - температура, которую ощущает человек, с поправкой на солнечный нагрев. Характеристика знойности погоды. Зависит от высоты солнца над горизонтом, облачности и скорости ветра. Ночью, в пасмурную погоду, а также при ветре 12 м/с и более поправка равна нулю.
P - Атмосферное давление - приведенное к уровню моря атмосферное давление.
Po - Атмосферное давление - измеренное на уровне метеостанции атмосферное давление.
Tmin - Минимальная температура - минимум температуры воздуха на высоте 2 м над землей.
Tmax - Максимальная температура - максимум температуры воздуха на высоте 2 м над землей.
R - Количество осадков - Количество выпавших осадков за 3 или 6 часов, мм.
SD - Снежный покров - Высота снежного покрова, см.